Regional Weather Roundup
Issued by NWS

Home | Current Version | Previous Version | Text Only | Print | Product List | Glossary Off
Versions: 1 2 3 4 5 6 7 8 9 10 11 12 13 14 15 16 17 18 19 20 21 22 23 24 25 26 27 28 29 30 31 32 33 34 35 36 37 38 39 40 41 42 43 44 45 46 47 48 49 50

000
ASUS43 KDMX 240201
RWRIA

WEATHER ROUNDUP FOR IOWA
NATIONAL WEATHER SERVICE DES MOINES IA
900 PM CDT THU MAR 23 2017

NOTE: "FAIR" INDICATES FEW OR NO CLOUDS BELOW 12,000 FEET WITH NO
SIGNIFICANT WEATHER AND/OR OBSTRUCTIONS TO VISIBILITY.

* - THESE STATIONS ARE NOT NWS STATIONS...THUS NOT UNDER NWS
QUALITY CONTROL.  THEY ALSO DO NOT REPORT WEATHER SUCH
AS PRECIPITATION OR FOG.

IAZ001>003-012>014-020>022-031>034-043>046-240300-
   NORTHWEST IOWA

CITY           SKY/WX    TMP DP  RH WIND       PRES   REMARKS
CARROLL *      MOCLDY    50  39  66 E9G17     29.72S
CHEROKEE *     CLOUDY    49  39  67 SE8       29.71R
LE MARS *      CLOUDY    55  43  62 SE8       29.67F
ORANGE CITY *  CLOUDY    50  45  81 SE7       29.68F
SHELDON *      CLOUDY    48  48 100 SE12      29.67F
SIOUX CITY     CLOUDY    55  45  68 SE6       29.65S
SPENCER        CLOUDY    47  38  71 SE13      29.73R
STORM LAKE *   MOCLDY    46  37  71 E14G23    29.71R
$$

IAZ055>058-069>071-079>083-090>094-240300-
   SOUTHWEST IOWA

CITY           SKY/WX    TMP DP  RH WIND       PRES   REMARKS
ATLANTIC *     CLOUDY    70  52  52 SE10G16   29.68R
AUDUBON *      MOCLDY    55  43  62 CALM      29.73R
CLARINDA *     CLOUDY    72  52  49 S14       29.73R
COUNCIL BLFS * CLOUDY    72  52  49 S14G22    29.67R
CRESTON *      PTCLDY    66  48  52 S10       29.75S
HARLAN  *      MOCLDY    66  52  59 S8        29.73R
LAMONI         PTCLDY    69  48  47 S9        29.76R
RED OAK *      CLOUDY    73  52  46 S13G20    29.69R
SHENANDOAH *   CLOUDY    73  52  46 S14G22    29.70R
$$

IAZ047>049-059>061-072>074-084-240300-
   CENTRAL IOWA

CITY           SKY/WX    TMP DP  RH WIND       PRES   REMARKS
AMES           CLOUDY    48  39  71 SE12      29.77F
ANKENY *       PTCLDY    50  37  62 SE7       29.79R
BOONE *        CLOUDY    48  37  66 SE16G23   29.75S
CHARITON *     PTCLDY    57  39  51 SE16      29.77R
DES MOINES     PTCLDY    56  38  50 SE9       29.77R
GRINNELL*      MOCLDY    46  38  73 SE16      29.81R
MARSHALLTOWN   MOCLDY    45  37  73 E12       29.82R
NEWTON *       PTCLDY    46  37  71 SE18      29.79R
PELLA *        PTCLDY    51  39  62 SE9       29.82R
PERRY *          N/A     50  36  59 SE14      29.72F
$$

IAZ004>006-015-016-023>025-035-036-240300-
   NORTH CENTRAL IOWA

CITY           SKY/WX    TMP DP  RH WIND       PRES   REMARKS
ALGONA *       CLOUDY    45  39  81 SE23      29.73F
CLARION *      CLOUDY    43  41  93 SE20      29.77F
ESTHERVILLE    CLOUDY    39  37  92 E12       29.74R WCI  32
FORT DODGE *   MOCLDY    45  36  70 SE17      29.74F
MASON CITY     CLOUDY    40  37  89 SE16      29.81F WCI  31
FOREST CITY *  MOCLDY    41  37  87 SE16      29.76F
WEBSTER CITY * CLOUDY    45  37  76 E12       29.77R
IOWA FALLS *     N/A     43  37  81 E15       29.81F
$$

IAZ007>011-017>019-026>030-037>042-050>054-066-240300-
   NORTHEAST IOWA

CITY           SKY/WX    TMP DP  RH WIND       PRES   REMARKS
CEDAR RAPIDS   MOCLDY    43  38  82 SE15      29.86S
CHARLES CITY * CLOUDY    41  41 100 SE18      29.84F
CLINTON *      CLOUDY    42  35  76 SE9       29.96R
DECORAH *      MIX PCPN  39  36  87 S13G22    29.88S WCI  32
DUBUQUE        CLOUDY    39  32  76 SE10      29.93F WCI  32
MONTICELLO *   MOCLDY    41  36  81 SE14      29.90F
OELWEIN *      CLOUDY    39  37  93 E13       29.92R WCI  32
WATERLOO       CLOUDY    40  36  86 E16       29.85S WCI  31
$$

IAZ064-065-067-068-078-240300-
   EAST CENTRAL IOWA

CITY           SKY/WX    TMP DP  RH WIND       PRES   REMARKS
DAVENPORT      CLOUDY    43  36  76 SE12      29.93R
IOWA CITY      MOCLDY    45  38  76 E9        29.90R
MUSCATINE *    CLOUDY    45  39  81 SE8G15    29.90R
QUAD CITIES    CLOUDY    44  37  76 SE9G18    29.92R
$$

IAZ062-063-075>077-085>089-095>099-240300-
   SOUTHEAST IOWA

CITY           SKY/WX    TMP DP  RH WIND       PRES   REMARKS
BURLINGTON     CLEAR     47  41  80 S12       29.89F
FAIRFIELD *    CLOUDY    50  39  66 SE17G23   29.84S
FORT MADISON * CLEAR     48  41  76 SE12      29.90S
KEOKUK *       CLEAR     50  41  71 SE10      29.89S
OSKALOOSA *      N/A     49  39  67 SE15      29.82S
CENTERVILLE *    N/A     55  39  54 SE13      29.83R
OTTUMWA        PTCLDY    53  38  56 S16       29.82R
WASHINGTON *   PTCLDY    46  41  81 SE16      29.87R
$$

ABBREVIATIONS USED IN REMARKS
   TC - TEMPERATURES IN CELSIUS
  WCI - WIND CHILL INDEX
   HX - HEAT INDEX
  VSB - VISIBILITY
$$





USA.gov is the U.S. government's official web portal to all federal, state and local government web resources and services.